Regional Weather Roundup
Issued by NWS

Home | Current Version | Previous Version | Graphics & Text | Print | Product List | Glossary Off
Versions: 1 2 3 4 5 6 7 8 9 10 11 12 13 14 15 16 17 18 19 20 21 22 23 24 25 26 27 28 29 30 31 32 33 34 35 36 37 38 39 40 41 42 43 44 45 46 47 48 49 50

000
ASUS43 KMKX 202300
RWRWI

WISCONSIN REGIONAL WEATHER ROUNDUP
NATIONAL WEATHER SERVICE MILWAUKEE/SULLIVAN WI
500 PM CST SAT DEC 20 2014

NOTE: "FAIR" INDICATES FEW OR NO CLOUDS BELOW 12,000 FEET WITH NO
SIGNIFICANT WEATHER AND/OR OBSTRUCTIONS TO VISIBILITY.

WIZ001-002-006>008-014>016-023>028-210000-
NORTHWEST WISCONSIN

CITY           SKY/WX    TMP DP  RH WIND       PRES   REMARKS
SUPERIOR ARPT  CLOUDY    32  28  86 S6        30.11S WCI  26
ASHLAND        CLOUDY    31  26  82 S5        30.14F WCI  26
HAYWARD        CLOUDY    30  25  81 S9        30.12S WCI  22
SIREN          CLOUDY    32  27  83 S8        30.12S WCI  24
CUMBERLAND     CLOUDY    30  27  86 S8        30.12S WCI  23
RICE LAKE      CLOUDY    31  27  84 SE7       30.15S WCI  25
CHETEK         CLOUDY    31  27  86 SE7       30.14F WCI  24
LADYSMITH      CLOUDY    31  27  87 SE5       30.16S FOG     WCI  26
EAU CLAIRE     NOT AVBL
MENOMONIE      CLOUDY    32  28  83 SE8       30.15S HAZE    WCI  25
NEW RICHMOND   CLOUDY    31  30  94 SE5       30.13S FOG     WCI  26
OSCEOLA        CLOUDY    32  32 100 SE5       30.15F FOG     WCI  27
$$

WIZ003>005-009-010-017-018-210000-
NORTH CENTRAL WISCONSIN

CITY           SKY/WX    TMP DP  RH WIND       PRES   REMARKS
MANITOWISH WTR CLOUDY    27  26  95 SE5       30.13S WCI  22
ARBOR VITAE    CLOUDY    29  27  90 S3        30.13F FOG
WOODRUFF       CLOUDY    29  27  90 S3        30.13F FOG
RHINELANDER    CLOUDY    27  25  92 S3        30.15S FOG
EAGLE RIVER    CLOUDY    28  27  99 CALM      30.14S FOG
LAND O LAKES   CLOUDY    28  27  98 CALM      30.14S FOG
PHILLIPS       CLOUDY    28  25  89 S5        30.13S WCI  23
TOMAHAWK       CLOUDY    27  25  90 CALM      30.16S FOG
MEDFORD        CLOUDY    28  25  90 SE3       30.15R FOG
MERRILL        CLOUDY    28  26  91 CALM      30.17S FOG
$$

WIZ029-030-035-036-043>047-210000-
CENTRAL WISCONSIN

CITY           SKY/WX    TMP DP  RH WIND       PRES   REMARKS
WAUSAU         CLOUDY    29  24  82 S6        30.17R WCI  23
MOSINEE        CLOUDY    28  27  93 SE5       30.18S WCI  23
MARSHFIELD     CLOUDY    30  26  85 SE7       30.16S WCI  23
STEVENS POINT  CLOUDY    28  24  86 SE5       30.19S WCI  23
WAUPACA        LGT SNOW  31  27  84 E3        30.21F
WAUTOMA        CLOUDY    30  27  86 E3        30.21F
WISC RAPIDS    CLOUDY    30  24  78 SE5       30.20S WCI  25
CAMP DOUGLAS   MOCLDY    30  30 100 SE6       30.18S WCI  24
$$

WIZ011>013-019>022-031-037>040-048>050-210000-
NORTHEAST WISCONSIN

CITY           SKY/WX    TMP DP  RH WIND       PRES   REMARKS
ANTIGO         CLOUDY    26  24  91 S6        30.17S WCI  19
SHAWANO        CLOUDY    31  26  80 S3        30.22S
OCONTO         CLOUDY    28  24  86 CALM      30.24R
STURGEON BAY   CLOUDY    28  21  74 CALM      30.25S
GREEN BAY      CLOUDY    30  25  81 CALM      30.23S HAZE
MANITOWOC      NOT AVBL
APPLETON       LGT SNOW  27  23  86 VRB3      30.22S
CLINTONVILLE   CLOUDY    30  25  80 S3        30.22S
OSHKOSH        CLOUDY    28  24  85 SE3       30.22S FOG
$$

WIZ032>034-041-042-053>061-210000-
SOUTHWEST WISCONSIN

CITY           SKY/WX    TMP DP  RH WIND       PRES   REMARKS
LA CROSSE      CLOUDY    33  28  81 S5        30.18S WCI  29
SPARTA         CLOUDY    31  27  84 SE6       30.19S WCI  25
VIROQUA        CLOUDY    29  29 100 SE8       30.16S WCI  21
BOSCOBEL       CLOUDY    33  26  75 S3        30.21R
PRAIRIE DU CHI CLOUDY    32  27  83 E3        30.19S HAZE
PLATTEVILLE    CLOUDY    31  27  84 CALM      30.20R
$$

WIZ056-057-062-063-064-067-068-210000-
SOUTH CENTRAL WISCONSIN

CITY           SKY/WX    TMP DP  RH WIND       PRES   REMARKS
REEDSBURG      CLOUDY    29  26  89 CALM      30.19S
BARABOO/DELLS  CLOUDY    29  26  86 SE6       30.19S FOG     WCI  23
LONE ROCK      NOT AVBL
MINERAL POINT  CLOUDY    32  28  86 SE6       30.18R FOG     WCI  26
MADISON        FLURRIES  30  26  85 S7        30.21S WCI  23
MIDDLETON      CLOUDY    31  28  85 S6        30.21S WCI  26
WATERTOWN      CLOUDY    28  28  98 CALM      30.22S FOG
MONROE         CLOUDY    30  28  93 SE6       30.20S WCI  24
JANESVILLE     LGT SNOW  30  28  93 S3        30.22S
$$

WIZ051-052-058>065-066-070>072-210000-
SOUTHEAST WISCONSIN

CITY           SKY/WX    TMP DP  RH WIND       PRES   REMARKS
MILWAUKEE      FLURRIES  31  23  72 W3        30.24S
WAUKESHA       CLOUDY    28  25  86 CALM      30.23F
MILWAUKEE/TIMM CLOUDY    30  23  74 CALM      30.24F
RACINE         CLOUDY    31  24  75 CALM      30.26S
BURLINGTON     CLOUDY    29  25  83 CALM      30.23R
KENOSHA        CLOUDY    32  25  75 CALM      30.24R
FOND DU LAC    CLOUDY    29  24  82 S3        30.22F
SHEBOYGAN      CLOUDY    30  25  81 CALM      30.23S
WEST BEND      CLOUDY    30  23  74 CALM      30.23S
JUNEAU         CLOUDY    29  25  87 SE5       30.23S WCI  24
$$

LSZ147-162-210000-
LAKE SUPERIOR

STATION/POSITION TIME  TEMP    WIND        PRES    WAVE
                       AIR SEA DIR/SP/G            HT/PER
                 (UTC) (F)     (DEG/KT/KT) (MB)    (FT/S)
DEVILS ISLAND    2200   32     200/  7/  9 1021.6R
PORT WING        2200   33     180/  7/  9 1020.3
SAXON HARBOR     2200   33      CALM  /  6 1020.7S
$$

LMZ867-665-643>646-210000-
LAKE MICHIGAN

STATION/POSITION TIME  TEMP    WIND        PRES    WAVE
                       AIR SEA DIR/SP/G            HT/PER
                 (UTC) (F)     (DEG/KT/KT) (MB)    (FT/S)
CHAMBERS ISLAND  2200   29      CALM  /  1 1024.0S
NORTHPORT PIER   2200   30      CALM  /  2 1024.0
SISTER BAY       2113             CALM       N/A
ALGOMA LAKESHORE 2214             CALM       N/A
KEWAUNEE LAKESHO 2200   31        CALM     1023.0R
SHEBOYGAN LAKESH 2200   32 34  340/  4/  4 1024.8R
PORT WASHINGTON  2240   31     270/  4/  6 1024.7S
MILWAUKEE LAKESH 2200   32     320/  2/  3   N/A
KENOSHA   LAKESH 2200   32      CALM  /  2 1024.0S
$$

TC  - TEMPERATURE IN CELSIUS
VSB - VISIBILITY IN STATUTE MILES
WCI - WIND CHILL INDEX
HX  - HEAT INDEX




USA.gov is the U.S. government's official web portal to all federal, state and local government web resources and services.